Regional Weather Roundup
Issued by NWS

Home | Current Version | Previous Version | Graphics & Text | Print | Product List | Glossary On
Versions: 1 2 3 4 5 6 7 8 9 10 11 12 13 14 15 16 17 18 19 20 21 22 23 24 25 26 27 28 29 30 31 32 33 34 35 36 37 38 39 40 41 42 43 44 45 46 47 48 49 50
000
ASUS43 KIND 112359
RWRIN

WEATHER ROUNDUP FOR INDIANA
NATIONAL WEATHER SERVICE INDIANAPOLIS IN
700 PM EST THU FEB 11 2016

NOTE: "FAIR" INDICATES FEW OR NO CLOUDS BELOW 12,000 FEET WITH NO
SIGNIFICANT WEATHER AND/OR OBSTRUCTIONS TO VISIBILITY.

* - STATION DOES NOT REPORT WEATHER SUCH AS PRECIPITATION OR FOG.

+ - STATION NOT QUALITY CONTROLLED BY THE NATIONAL WEATHER SERVICE.
    USE DATA WITH CAUTION...ESPECIALLY DEWPOINT AND RELATIVE
    HUMIDITY OBSERVATIONS.

INZ001>003-010>013-019-020-120100-
NORTHWEST INDIANA

CITY           SKY/WX    TMP DP  RH WIND       PRES   REMARKS
GARY /AIRPORT/ PTCLDY    19   5  53 MISG      30.30S
MONTICELLO +   CLEAR     20   2  46 CALM      30.30R
6HR MIN TEMP:  20; 6HR MAX TEMP:  23;

RENSSELAER +   CLEAR     21   3  45 NW3       30.30R

$$

LMZ046-743>745-120100-
SOUTHERN LAKE MICHIGAN

STATION/POSITION TIME  TEMP    WIND        PRES    WAVE
                       AIR SEA DIR/SP/G            HT
                 (UTC) (F)     (DEG/KT/KT) (MB)    (FT)
BURNS HARBOR     2300   20      CALM  /  3 1026.4S
MICHIGAN CITY    2300   19     260/  4/  5   N/A

$$

INZ004-005-014>016-021>024-120100-
NORTH CENTRAL INDIANA

CITY           SKY/WX    TMP DP  RH WIND       PRES   REMARKS
ELKHART        MOCLDY    19  10  68 W8        30.29R WCI   9
GOSHEN         CLOUDY    18   7  62 W8        30.28R WCI   8
6HR MIN TEMP:  16; 6HR MAX TEMP:  21; 6HR PCP: TRACE;

SOUTH BEND     CLEAR     10   3  73 W6        30.29R WCI   0
6HR MIN TEMP:  10; 6HR MAX TEMP:  22; 6HR PCP: TRACE;


$$

INZ006>009-017-018-025>027-120100-
NORTHEAST INDIANA

CITY           SKY/WX    TMP DP  RH WIND       PRES   REMARKS
ANGOLA *+      CLOUDY    19   9  63 CALM      30.24R
FORT WAYNE     MOCLDY    20  10  65 SW8       30.29R WCI  10
6HR MIN TEMP:  20; 6HR MAX TEMP:  34; 6HR PCP: TRACE;


$$

INZ028-029-035-036-043>045-051>053-120100-
WEST CENTRAL INDIANA

CITY           SKY/WX    TMP DP  RH WIND       PRES   REMARKS
GREENCASTLE +  PTCLDY    23   1  39 N3        30.30R
LAFAYETTE      CLEAR     20   5  52 NW3       30.31R
6HR MIN TEMP:  19; 6HR MAX TEMP:  24;

TERRE HAUTE    CLOUDY    24   9  52 CALM      30.32R
6HR MIN TEMP:  21; 6HR MAX TEMP:  26;


$$

INZ030>032-037>040-046>048-054>057-064-065-120100-
CENTRAL INDIANA

CITY           SKY/WX    TMP DP  RH WIND       PRES   REMARKS
COLUMBUS       CLEAR     19  10  68 SE5       30.32S WCI  13
INDIANAPOLIS   MOCLDY    21   8  57 SW9       30.29R WCI  11
6HR MIN TEMP:  20; 6HR MAX TEMP:  27;

-EAGLE CREEK   CLEAR     22   7  52 NW3       30.29R
6HR MIN TEMP:  21; 6HR MAX TEMP:  25;

KOKOMO *+      CLEAR     18   5  57 W3        30.29S
6HR MIN TEMP:  18; 6HR MAX TEMP:  25;

MT COMFORT *+  PTCLDY    21  10  63 S3        30.30R
SHELBYVILLE    CLEAR     21   8  57 S6        30.30R WCI  13
6HR MIN TEMP:  21; 6HR MAX TEMP:  24;


$$

INZ033-034-041-042-049-050-058-059-120100-
EAST CENTRAL INDIANA

CITY           SKY/WX    TMP DP  RH WIND       PRES   REMARKS
MUNCIE         PTCLDY    17   5  59 CALM      30.29R
6HR MIN TEMP:  16; 6HR MAX TEMP:  23;


$$

INZ060-061-067>069-081>083-085>088-120100-
SOUTHWEST INDIANA

CITY           SKY/WX    TMP DP  RH WIND       PRES   REMARKS
EVANSVILLE     PTCLDY    30  11  45 N5        30.32S WCI  25
6HR MIN TEMP:  29; 6HR MAX TEMP:  34;

HUNTINGBURG *+ CLOUDY    27  10  50 NW6       30.32R WCI  20
6HR MIN TEMP:  27; 6HR MAX TEMP:  30;


$$

INZ062-063-066-070>080-084-089>092-120100-
SOUTH CENTRAL AND SOUTHEAST INDIANA

CITY           SKY/WX    TMP DP  RH WIND       PRES   REMARKS
BLOOMINGTON    PTCLDY    24   3  40 NE3       30.29S
6HR MIN TEMP:  22; 6HR MAX TEMP:  27;

MADISON *+     CLOUDY    23   7  50 CALM      30.32R
SEYMOUR +      CLOUDY    25  10  54 NE7       30.32R WCI  17

$$




USA.gov is the U.S. government's official web portal to all federal, state and local government web resources and services.